Location: ??????
(56.0120°N, 39.1740°E)
Time: 09:40:20
(UTC+00:00)

ARIANE 6 FM1 Upper Stage - Pass Details

Date: 14 April 2026
Orbit: 526 x 601 km, 62.0° (Epoch: 19 May)

Event Time Altitude Azimuth Distance (km) Brightness Sun altitude
Rises 19:59:51 0° 285° (WNW) 2,700 6.7 -22.1°
Reaches altitude 10° 20:02:13 10° 295° (WNW) 1,798 5.8 -22.2°
Maximum altitude 20:05:56 34° 2° (N) 889 4.2 -22.4°
Drops below altitude 10° 20:09:36 10° 69° (ENE) 1,779 5.2 -22.6°
Enters shadow 20:10:20 - 73° (ENE) 2,052 5.5 -22.6°
